When you browse on this site, cookies collect data to enhance your experience and personalize the content and advertising you see.
Visit our Privacy Policy to learn more. By continuing to use the site, you agree to this use of cookies and data.
  • In Portugal
  • List of Countries
  • For 7 days
  • Water Temperature
  • Weather Map
  • Weather Widgets
  • user-avatar
    Login

    Hourly Weather Chigariha

    Today, 21 January, Tuesday

    Time Temperature Precipitation Wind Pressure Humidity
    00:00 -2°C° 0 mm 5 mps 739 mmHg 88%
    01:00 -2°C° 0 mm 5 mps 738 mmHg 88%
    02:00 -2°C° 0 mm 5 mps 738 mmHg 88%
    03:00 -1°C° 0.1 mm 5 mps 736 mmHg 89%
    04:00 -2°C° 0.1 mm 6 mps 735 mmHg 90%
    05:00 -1°C° 0.1 mm 6 mps 734 mmHg 92%
    06:00 -1°C° 0 mm 6 mps 734 mmHg 90%
    07:00 -1°C° 0 mm 6 mps 733 mmHg 89%
    08:00 -1°C° 0 mm 6 mps 732 mmHg 88%
    09:00 +1°C° 0 mm 6 mps 732 mmHg 88%
    10:00 +1°C° 0 mm 6 mps 731 mmHg 88%
    11:00 +2°C° 0 mm 6 mps 731 mmHg 88%
    12:00 +2°C° 0.1 mm 5 mps 730 mmHg 89%
    13:00 +2°C° 0.1 mm 5 mps 730 mmHg 90%
    14:00 +2°C° 0.1 mm 5 mps 729 mmHg 92%
    15:00 +2°C° 1 mm 5 mps 728 mmHg 92%
    16:00 +2°C° 1 mm 5 mps 727 mmHg 93%
    17:00 +2°C° 1 mm 5 mps 726 mmHg 94%
    18:00 +2°C° 0.5 mm 5 mps 726 mmHg 90%
    19:00 +1°C° 0.5 mm 6 mps 726 mmHg 87%
    20:00 0°C° 0.5 mm 7 mps 727 mmHg 83%
    21:00 -1°C° 0 mm 7 mps 727 mmHg 81%
    22:00 -2°C° 0 mm 6 mps 727 mmHg 78%
    23:00 -3°C° 0 mm 6 mps 727 mmHg 76%

    Tomorrow, 22 January, Wednesday

    Time Temperature Precipitation Wind Pressure Humidity
    00:00 -3°C° 0 mm 6 mps 727 mmHg 77%
    01:00 -4°C° 0 mm 6 mps 727 mmHg 78%
    02:00 -4°C° 0 mm 6 mps 728 mmHg 80%
    03:00 -4°C° 0 mm 6 mps 727 mmHg 82%
    04:00 -4°C° 0 mm 6 mps 726 mmHg 85%
    05:00 -4°C° 0 mm 6 mps 725 mmHg 87%
    06:00 -4°C° 0.1 mm 5 mps 725 mmHg 85%
    07:00 -4°C° 0.1 mm 5 mps 724 mmHg 83%
    08:00 -4°C° 0.1 mm 5 mps 724 mmHg 81%
    09:00 -4°C° 0.3 mm 6 mps 724 mmHg 80%
    10:00 -4°C° 0.3 mm 6 mps 724 mmHg 78%
    11:00 -3°C° 0.3 mm 6 mps 723 mmHg 76%
    12:00 -3°C° 0.1 mm 6 mps 723 mmHg 73%
    13:00 -4°C° 0.1 mm 5 mps 723 mmHg 70%
    14:00 -4°C° 0.1 mm 5 mps 723 mmHg 67%
    15:00 -4°C° 0 mm 5 mps 724 mmHg 70%
    16:00 -5°C° 0 mm 5 mps 724 mmHg 73%
    17:00 -5°C° 0 mm 5 mps 724 mmHg 75%
    18:00 -5°C° 0 mm 5 mps 725 mmHg 75%
    19:00 -6°C° 0 mm 5 mps 725 mmHg 75%
    20:00 -6°C° 0 mm 6 mps 726 mmHg 75%
    21:00 -6°C° 0 mm 6 mps 726 mmHg 73%
    22:00 -6°C° 0 mm 6 mps 727 mmHg 71%
    23:00 -8°C° 0 mm 6 mps 727 mmHg 69%

    Day after tomorrow, 23 January, Thursday

    Time Temperature Precipitation Wind Pressure Humidity
    00:00 -8°C° 0 mm 6 mps 728 mmHg 68%
    01:00 -8°C° 0 mm 6 mps 728 mmHg 67%
    02:00 -9°C° 0 mm 6 mps 729 mmHg 66%
    03:00 -9°C° 0 mm 6 mps 730 mmHg 65%
    04:00 -9°C° 0 mm 6 mps 730 mmHg 64%
    05:00 -9°C° 0 mm 6 mps 730 mmHg 62%
    06:00 -9°C° 0 mm 6 mps 731 mmHg 62%
    07:00 -9°C° 0 mm 6 mps 731 mmHg 61%
    08:00 -9°C° 0 mm 6 mps 731 mmHg 60%
    09:00 -9°C° 0 mm 6 mps 732 mmHg 58%
    10:00 -8°C° 0 mm 6 mps 732 mmHg 56%
    11:00 -8°C° 0 mm 7 mps 732 mmHg 54%
    12:00 -8°C° 0 mm 7 mps 733 mmHg 55%
    13:00 -8°C° 0 mm 6 mps 733 mmHg 56%
    14:00 -8°C° 0 mm 6 mps 734 mmHg 58%
    15:00 -8°C° 0 mm 6 mps 734 mmHg 57%
    16:00 -8°C° 0 mm 5 mps 735 mmHg 56%
    17:00 -8°C° 0 mm 5 mps 735 mmHg 55%
    18:00 -8°C° 0 mm 4 mps 735 mmHg 57%
    19:00 -9°C° 0 mm 4 mps 736 mmHg 59%
    20:00 -8°C° 0 mm 3 mps 736 mmHg 61%
    21:00 -8°C° 0 mm 3 mps 736 mmHg 64%
    22:00 -7°C° 0 mm 3 mps 736 mmHg 68%
    23:00 -7°C° 0 mm 3 mps 736 mmHg 72%

    24 January, Friday

    Time Temperature Precipitation Wind Pressure Humidity
    00:00 -7°C° 0 mm 3 mps 735 mmHg 75%
    01:00 -6°C° 0 mm 3 mps 735 mmHg 78%
    02:00 -6°C° 0 mm 3 mps 734 mmHg 81%
    03:00 -5°C° 0.2 mm 4 mps 734 mmHg 84%
    04:00 -5°C° 0.2 mm 4 mps 733 mmHg 87%
    05:00 -6°C° 0.2 mm 5 mps 733 mmHg 89%
    06:00 -5°C° 0 mm 5 mps 732 mmHg 88%
    07:00 -5°C° 0 mm 5 mps 732 mmHg 87%
    08:00 -4°C° 0 mm 4 mps 731 mmHg 85%
    09:00 -3°C° 0 mm 4 mps 731 mmHg 87%
    10:00 -3°C° 0 mm 4 mps 731 mmHg 90%
    11:00 -2°C° 0 mm 5 mps 731 mmHg 92%
    12:00 -1°C° 0 mm 5 mps 731 mmHg 89%
    13:00 0°C° 0 mm 5 mps 731 mmHg 87%
    14:00 0°C° 0 mm 5 mps 731 mmHg 85%
    15:00 0°C° 0 mm 5 mps 731 mmHg 87%
    16:00 0°C° 0 mm 5 mps 731 mmHg 88%
    17:00 0°C° 0 mm 4 mps 731 mmHg 90%
    18:00 0°C° 0 mm 4 mps 731 mmHg 91%
    19:00 +1°C° 0 mm 3 mps 732 mmHg 92%
    20:00 +1°C° 0 mm 3 mps 732 mmHg 94%
    21:00 +1°C° 0.1 mm 3 mps 731 mmHg 94%
    22:00 0°C° 0.1 mm 4 mps 731 mmHg 94%
    23:00 0°C° 0.1 mm 4 mps 731 mmHg 94%

    25 January, Saturday

    Time Temperature Precipitation Wind Pressure Humidity
    00:00 0°C° 0.1 mm 4 mps 730 mmHg 94%
    01:00 0°C° 0.1 mm 4 mps 730 mmHg 94%
    02:00 0°C° 0.1 mm 4 mps 730 mmHg 94%
    03:00 0°C° 0.1 mm 4 mps 730 mmHg 94%
    04:00 0°C° 0.1 mm 5 mps 729 mmHg 94%
    05:00 0°C° 0.1 mm 5 mps 729 mmHg 95%
    06:00 0°C° 0 mm 5 mps 729 mmHg 94%
    07:00 0°C° 0 mm 5 mps 729 mmHg 94%
    08:00 0°C° 0 mm 5 mps 729 mmHg 94%
    09:00 0°C° 0.1 mm 4 mps 730 mmHg 94%
    10:00 0°C° 0.1 mm 4 mps 730 mmHg 95%
    11:00 0°C° 0.1 mm 4 mps 730 mmHg 96%
    12:00 0°C° 0.1 mm 4 mps 731 mmHg 96%
    13:00 0°C° 0.1 mm 4 mps 731 mmHg 95%
    14:00 0°C° 0.1 mm 4 mps 731 mmHg 95%
    15:00 +1°C° 0 mm 3 mps 731 mmHg 95%
    16:00 +1°C° 0 mm 3 mps 731 mmHg 94%
    17:00 +1°C° 0 mm 3 mps 732 mmHg 94%
    18:00 +1°C° 0 mm 2 mps 732 mmHg 94%
    19:00 -1°C° 0 mm 2 mps 732 mmHg 95%
    20:00 -1°C° 0 mm 2 mps 732 mmHg 96%
    21:00 -1°C° 0 mm 2 mps 732 mmHg 96%
    22:00 -1°C° 0 mm 2 mps 733 mmHg 96%
    23:00 -1°C° 0 mm 2 mps 733 mmHg 95%

    26 January, Sunday

    Time Temperature Precipitation Wind Pressure Humidity
    00:00 -1°C° 0 mm 2 mps 733 mmHg 95%
    01:00 -1°C° 0 mm 2 mps 733 mmHg 94%
    02:00 -1°C° 0 mm 2 mps 733 mmHg 94%
    03:00 -1°C° 0 mm 2 mps 733 mmHg 94%
    04:00 -1°C° 0 mm 2 mps 733 mmHg 94%
    05:00 -1°C° 0 mm 2 mps 733 mmHg 93%
    06:00 -1°C° 0 mm 2 mps 733 mmHg 93%
    07:00 -1°C° 0 mm 2 mps 733 mmHg 93%
    08:00 -1°C° 0 mm 2 mps 734 mmHg 93%
    09:00 -1°C° 0 mm 2 mps 734 mmHg 92%
    10:00 +1°C° 0 mm 2 mps 734 mmHg 91%
    11:00 +1°C° 0 mm 2 mps 734 mmHg 90%
    12:00 +1°C° 0 mm 2 mps 734 mmHg 91%
    13:00 +1°C° 0 mm 2 mps 734 mmHg 93%
    14:00 +1°C° 0 mm 2 mps 734 mmHg 94%
    15:00 0°C° 0 mm 3 mps 734 mmHg 94%
    16:00 0°C° 0 mm 3 mps 733 mmHg 95%
    17:00 0°C° 0 mm 3 mps 733 mmHg 95%
    18:00 0°C° 0 mm 3 mps 733 mmHg 95%
    19:00 0°C° 0 mm 3 mps 733 mmHg 96%
    20:00 0°C° 0 mm 3 mps 733 mmHg 97%
    21:00 0°C° 0 mm 3 mps 733 mmHg 96%
    22:00 0°C° 0 mm 3 mps 733 mmHg 95%
    23:00 0°C° 0 mm 3 mps 732 mmHg 94%
    Show more